Temp
70 67 67 66 58 53 50 54 58 59 62 64 62 62 63 65 63 61 65 66 67 70 70 74 75 76 76 76 76 76 76 77 78 77 76 76 76 76 75 75 75 75 76 76 74 74 73 73 72
68 70 65 59 52 47 50 55 56 60 64 63 63 63 64 65 66 67 65 66 67 70 70 73 73 75 76 75 75 75 76 77 77 77 76 77 76 75 75 75 75 75 76 75 73 72 71 71 71
69 68 62 54 47 47 50 56 60 62 62 63 63 65 66 67 67 66 66 66 67 69 70 71 72 75 76 75 75 75 75 76 77 76 76 75 75 74 73 73 74 74 74 72 72 71 71 70 70
66 64 58 53 48 52 55 60 61 62 62 61 63 63 66 68 68 67 65 65 66 67 69 70 72 75 75 75 75 75 76 76 77 76 74 73 73 72 72 72 72 72 72 71 71 71 70 69 69
60 58 51 47 48 53 55 58 61 60 61 62 62 63 63 67 63 63 64 64 65 66 67 70 71 73 74 74 74 74 75 76 75 74 73 72 72 71 71 71 71 71 70 70 70 70 68 68 67
57 55 48 45 48 53 56 59 61 60 61 61 61 61 64 64 63 63 62 63 65 65 65 67 68 70 73 74 73 74 74 75 74 73 73 72 71 71 70 70 70 70 70 70 69 68 67 67 66
55 51 47 46 48 51 58 59 59 60 60 62 63 61 66 65 63 60 60 62 63 64 63 65 68 69 69 71 71 73 72 73 72 73 72 70 70 70 70 69 70 70 69 68 68 67 66 66 65
54 53 47 46 48 52 58 58 60 61 63 61 64 62 64 67 57 57 58 60 61 61 63 63 65 66 69 70 67 68 69 70 70 69 68 67 67 67 67 67 68 69 68 67 66 66 65 65 63
57 49 44 49 48 55 58 57 60 61 61 60 62 63 65 55 54 55 56 56 57 58 60 61 62 63 65 65 65 65 66 67 67 66 64 63 63 65 64 63 67 68 66 66 65 64 62 61 60
54 46 49 54 53 55 58 58 60 60 60 58 61 63 58 54 54 55 55 57 56 57 58 59 60 61 61 62 64 65 64 66 64 63 61 60 59 60 60 61 64 65 64 64 63 61 57 54 56
52 50 52 56 57 57 56 55 60 58 57 59 61 65 59 54 53 54 56 58 59 60 59 58 58 59 59 60 60 61 61 61 60 59 57 56 56 58 58 58 57 57 55 57 56 54 54 53 54
50 54 54 57 57 55 55 56 55 57 67 66 64 65 61 57 54 55 56 57 57 56 58 58 57 57 57 58 59 59 58 57 57 56 54 54 53 54 54 54 53 53 52 52 52 52 51 51 51
50 52 55 55 55 55 55 55 55 56 63 62 61 59 60 58 58 56 58 59 57 55 57 57 57 57 57 56 57 57 57 56 56 54 53 53 52 52 52 51 51 51 50 51 51 51 51 51 51
52 52 53 54 55 54 55 59 54 59 59 60 58 59 58 57 60 57 53 56 55 58 57 57 56 57 57 56 55 57 56 55 54 53 53 51 52 51 50 49 49 49 49 49 50 50 50 50 50
51 51 51 51 52 53 51 51 49 62 55 60 60 58 56 58 57 58 63 58 59 59 59 56 56 57 56 56 55 56 55 52 53 53 51 51 50 50 50 48 48 48 48 48 48 48 48 49 49
46 45 43 50 49 50 54 47 59 60 55 58 59 59 59 60 59 60 61 61 60 59 57 57 57 55 56 56 56 56 54 53 53 52 51 50 50 50 48 48 47 47 47 47 48 48 48 49 50
41 39 40 45 50 50 49 47 55 55 54 56 59 63 60 64 68 63 60 61 59 59 59 56 56 55 55 56 56 55 53 53 53 51 51 50 49 48 49 48 47 45 45 46 47 46 48 47 47
39 36 38 41 50 45 44 45 52 57 55 58 60 60 62 63 65 70 64 59 59 58 59 58 54 56 54 55 54 52 50 52 51 50 50 49 49 47 47 46 45 44 44 44 44 45 44 46 47
41 40 39 44 49 44 49 50 51 56 54 56 60 62 61 62 66 66 61 60 56 54 54 55 53 54 53 52 49 49 48 50 48 50 50 49 49 47 47 46 45 44 44 44 44 44 44 43 44
42 42 41 46 50 43 44 47 54 56 57 59 60 61 59 59 63 63 59 57 55 56 53 53 53 53 52 53 53 54 53 51 51 50 49 49 48 47 46 45 44 43 43 42 43 43 42 43 42
39 38 42 41 42 43 40 41 42 51 51 54 58 58 58 58 59 62 58 56 55 53 51 52 53 52 53 54 52 44 46 44 45 45 45 45 46 45 47 45 44 43 44 43 42 43 43 42 40
40 44 43 40 37 34 41 34 40 49 52 51 53 53 54 54 56 56 54 53 53 54 50 50 51 51 51 52 49 49 51 48 48 49 47 46 45 45 46 44 44 43 43 43 42 42 44 43 42
42 43 40 38 35 33 33 32 39 43 49 51 55 54 54 55 52 53 52 52 52 50 48 47 48 49 50 50 50 48 50 50 48 50 45 44 43 44 43 44 43 42 42 42 42 40 41 43 43
43 39 38 33 33 27 36 36 36 42 48 48 55 56 54 53 52 53 51 50 50 46 44 44 45 45 47 48 48 47 48 45 44 43 43 42 41 41 41 42 42 43 42 41 40 41 41 41 42
41 37 29 26 24 28 34 32 40 47 51 51 54 54 53 50 49 50 53 51 48 45 42 43 43 44 45 45 46 46 48 46 45 43 44 41 40 40 40 41 40 41 41 40 40 40 40 40 40
38 41 33 23 22 30 34 32 41 48 52 50 48 50 50 50 49 49 47 46 46 44 43 42 41 42 42 42 43 44 45 46 45 44 45 43 43 43 43 40 42 42 40 39 39 39 39 39 40
38 36 43 33 29 26 34 40 49 48 48 48 48 47 44 42 41 41 42 43 43 43 42 42 41 41 42 41 42 42 43 43 43 41 42 43 43 43 41 41 40 40 39 39 39 39 38 38 39
42 44 34 32 23 23 31 32 38 44 45 45 38 36 38 39 40 40 41 42 42 43 44 44 43 41 42 41 41 42 41 42 43 40 39 40 41 41 40 39 40 39 39 38 38 39 37 37 37
36 35 37 37 34 29 28 31 48 42 34 34 35 36 37 38 39 40 41 42 42 42 42 42 42 41 41 41 40 39 40 40 40 38 39 39 40 39 38 38 38 38 37 37 36 38 36 36 36
41 42 42 34 30 33 34 35 46 35 35 36 34 36 38 38 39 40 40 41 41 41 41 41 41 40 39 40 39 39 39 38 37 38 38 39 38 38 38 37 37 37 37 37 36 36 36 35 34
MSLP
1017.20 1017.32 1017.41 1017.72 1019.24 1019.92 1019.51 1018.64 1017.95 1017.50 1017.27 1017.01 1017.06 1017.29 1017.20 1017.03 1017.00 1017.10 1016.64 1016.71 1016.67 1016.74 1017.17 1017.32 1017.52 1017.84 1018.18 1018.45 1018.80 1019.13 1019.36 1019.46 1019.52 1019.68 1019.98 1020.25 1020.38 1020.53 1020.64 1020.91 1020.96 1020.97 1020.96 1021.21 1021.47 1021.59 1021.65 1021.69 1021.88
1017.32 1017.28 1017.79 1018.81 1019.76 1020.25 1019.45 1018.42 1017.88 1017.30 1017.07 1017.04 1017.05 1017.07 1017.08 1016.62 1016.34 1016.20 1016.51 1016.54 1016.69 1016.59 1017.00 1017.20 1017.47 1017.76 1018.13 1018.47 1018.77 1018.98 1019.17 1019.34 1019.49 1019.73 1019.94 1020.23 1020.55 1020.83 1020.82 1020.88 1020.99 1020.98 1021.02 1021.39 1021.68 1021.85 1021.90 1021.93 1021.96
1017.31 1017.67 1018.69 1019.73 1020.52 1020.36 1019.25 1018.04 1017.48 1017.09 1017.01 1017.03 1017.11 1016.96 1016.68 1016.15 1016.07 1016.05 1016.02 1016.30 1016.74 1016.80 1016.96 1017.23 1017.44 1017.63 1017.90 1018.29 1018.59 1018.83 1019.04 1019.13 1019.40 1019.74 1020.11 1020.55 1020.83 1021.06 1021.26 1021.22 1021.21 1021.23 1021.39 1021.73 1021.86 1022.08 1022.11 1022.23 1022.21
1017.78 1018.51 1020.00 1020.18 1020.51 1019.85 1018.87 1017.77 1017.53 1017.07 1016.90 1017.03 1016.97 1016.96 1016.54 1015.63 1015.87 1016.02 1016.25 1016.51 1016.80 1017.04 1017.21 1017.29 1017.39 1017.55 1017.84 1018.14 1018.43 1018.73 1018.96 1019.07 1019.45 1019.93 1020.38 1020.74 1021.11 1021.32 1021.47 1021.49 1021.47 1021.64 1021.81 1022.02 1022.10 1022.17 1022.16 1022.53 1022.46
1018.55 1019.45 1020.22 1020.65 1020.34 1019.33 1018.42 1017.56 1017.33 1017.17 1017.03 1016.94 1016.92 1016.72 1016.47 1015.71 1016.16 1016.25 1016.45 1016.73 1016.87 1017.06 1017.26 1017.43 1017.51 1017.58 1017.78 1018.22 1018.51 1018.77 1019.03 1019.13 1019.77 1020.20 1020.48 1020.75 1021.05 1021.38 1021.52 1021.66 1021.84 1021.92 1022.07 1022.12 1022.30 1022.45 1022.62 1022.67 1022.61
1019.33 1020.13 1020.78 1020.80 1020.04 1018.98 1017.99 1017.26 1017.14 1017.05 1016.88 1016.88 1016.98 1016.75 1016.18 1015.71 1016.08 1016.27 1016.48 1016.66 1016.90 1017.24 1017.49 1017.51 1017.53 1017.71 1017.79 1018.14 1018.48 1018.74 1019.08 1019.28 1019.81 1020.19 1020.52 1020.83 1021.22 1021.47 1021.58 1021.73 1021.89 1021.96 1022.12 1022.21 1022.53 1022.66 1022.83 1022.84 1022.79
1019.33 1020.41 1020.81 1020.60 1019.88 1018.85 1017.52 1017.07 1016.94 1016.71 1016.61 1016.48 1016.46 1016.67 1015.93 1015.83 1015.91 1016.36 1016.61 1016.80 1016.78 1017.12 1017.47 1017.65 1017.72 1017.77 1017.89 1018.20 1018.43 1018.65 1019.02 1019.32 1019.82 1020.14 1020.53 1020.98 1021.30 1021.54 1021.73 1021.91 1022.09 1022.11 1022.26 1022.50 1022.70 1022.86 1022.88 1022.98 1023.20
1019.37 1020.27 1020.76 1020.36 1019.70 1018.34 1017.12 1016.87 1016.37 1016.47 1016.14 1016.38 1016.42 1016.33 1015.91 1015.76 1016.34 1016.71 1016.96 1017.07 1017.18 1017.23 1017.22 1017.34 1017.53 1017.73 1017.89 1018.22 1018.45 1018.62 1018.98 1019.24 1019.65 1020.05 1020.53 1020.98 1021.30 1021.64 1021.85 1022.03 1022.20 1022.31 1022.56 1022.77 1022.99 1023.10 1023.22 1023.39 1023.73
1019.47 1020.34 1020.52 1019.69 1019.38 1017.74 1016.93 1016.71 1016.22 1015.92 1016.06 1016.15 1016.02 1015.78 1015.41 1016.20 1016.88 1017.07 1017.30 1017.37 1017.38 1017.35 1017.25 1017.30 1017.48 1017.62 1017.75 1018.05 1018.33 1018.61 1018.96 1019.21 1019.62 1020.04 1020.51 1020.99 1021.42 1021.71 1022.01 1022.12 1022.16 1022.39 1022.74 1023.00 1023.23 1023.43 1023.69 1023.80 1023.96
1019.49 1020.28 1019.50 1018.35 1017.94 1017.23 1016.67 1016.48 1015.99 1016.03 1015.80 1015.72 1015.63 1015.16 1015.51 1016.31 1016.68 1016.79 1016.79 1016.67 1016.92 1016.85 1016.92 1017.21 1017.27 1017.46 1017.82 1018.12 1018.34 1018.52 1018.81 1019.17 1019.61 1020.07 1020.55 1021.03 1021.58 1021.87 1022.08 1022.24 1022.30 1022.52 1022.86 1023.15 1023.44 1023.63 1023.90 1024.05 1024.27
1019.13 1019.11 1018.34 1017.59 1017.14 1016.80 1016.59 1016.25 1015.84 1015.81 1015.08 1014.50 1014.69 1014.49 1014.99 1015.73 1016.14 1016.21 1016.08 1015.87 1015.34 1015.76 1016.51 1016.80 1017.20 1017.38 1017.59 1017.90 1018.29 1018.67 1018.99 1019.33 1019.81 1020.19 1020.66 1021.18 1021.68 1021.95 1022.15 1022.37 1022.68 1022.95 1023.17 1023.42 1023.75 1024.04 1024.24 1024.30 1024.34
1019.01 1018.11 1017.81 1017.17 1016.79 1016.77 1016.49 1016.04 1015.87 1015.62 1013.26 1013.04 1013.38 1013.76 1014.17 1014.79 1015.12 1015.24 1015.29 1015.05 1015.26 1015.40 1015.42 1015.97 1016.68 1017.19 1017.52 1017.77 1018.01 1018.28 1018.64 1019.12 1019.62 1020.12 1020.56 1020.98 1021.52 1021.93 1022.23 1022.46 1022.88 1023.18 1023.55 1023.82 1024.04 1024.18 1024.35 1024.50 1024.64
1018.59 1017.79 1017.36 1016.86 1016.93 1016.68 1016.50 1015.62 1015.73 1014.41 1012.80 1012.90 1013.21 1013.53 1013.50 1013.83 1013.73 1013.90 1014.03 1014.23 1014.56 1014.82 1015.06 1015.43 1015.75 1016.12 1016.80 1017.47 1017.73 1018.09 1018.35 1018.75 1019.16 1019.75 1020.24 1020.70 1021.25 1021.62 1022.05 1022.26 1022.72 1023.15 1023.58 1023.85 1024.16 1024.30 1024.42 1024.53 1024.75
1017.90 1017.70 1017.28 1016.92 1016.72 1016.57 1016.41 1015.16 1015.48 1012.86 1012.52 1012.50 1012.75 1012.33 1012.58 1012.82 1012.62 1013.09 1013.23 1012.93 1013.43 1013.56 1013.72 1014.23 1014.68 1015.15 1015.78 1016.19 1016.78 1017.22 1017.85 1018.30 1018.90 1019.35 1019.75 1020.35 1020.70 1021.21 1021.78 1022.26 1022.66 1023.08 1023.40 1023.84 1024.13 1024.22 1024.47 1024.66 1024.79
1017.77 1017.83 1017.07 1016.48 1015.94 1016.27 1016.26 1015.96 1014.22 1012.18 1012.80 1012.36 1011.82 1011.78 1011.78 1011.77 1011.63 1011.35 1010.96 1011.52 1011.80 1011.91 1012.57 1013.07 1013.78 1014.49 1014.79 1015.08 1015.70 1016.22 1016.82 1017.73 1018.29 1018.87 1019.51 1019.93 1020.37 1020.82 1021.33 1021.88 1022.47 1022.92 1023.36 1023.70 1024.16 1024.48 1024.74 1024.78 1024.76
1017.86 1018.18 1017.65 1015.96 1016.07 1015.78 1015.95 1014.84 1012.61 1012.34 1012.46 1012.07 1011.45 1011.15 1011.05 1010.46 1010.58 1010.45 1010.46 1010.53 1011.08 1011.55 1011.73 1012.01 1012.46 1013.03 1013.79 1014.19 1014.66 1015.29 1016.01 1016.64 1017.23 1018.04 1018.66 1019.24 1019.84 1020.42 1021.10 1021.55 1022.03 1022.60 1023.23 1023.69 1023.98 1024.25 1024.46 1024.63 1024.55
1018.36 1018.01 1017.67 1016.64 1015.35 1015.69 1015.81 1014.50 1012.94 1012.43 1012.64 1012.12 1011.45 1010.73 1010.28 1009.47 1008.70 1009.03 1009.40 1009.54 1009.81 1010.11 1010.59 1011.19 1011.75 1011.90 1012.25 1013.12 1013.76 1014.36 1015.03 1015.61 1016.24 1016.94 1017.60 1018.44 1019.22 1019.91 1020.47 1021.10 1021.73 1022.38 1022.82 1023.22 1023.52 1024.12 1024.27 1024.55 1024.81
1017.74 1018.11 1017.68 1017.27 1015.73 1015.73 1015.47 1014.33 1013.31 1012.63 1012.47 1011.16 1010.36 1009.49 1008.81 1008.92 1007.99 1007.64 1008.38 1008.60 1008.78 1009.08 1009.28 1009.62 1010.31 1010.79 1011.73 1012.76 1013.53 1014.06 1014.45 1014.81 1015.29 1015.77 1016.32 1017.10 1017.99 1018.99 1019.84 1020.57 1021.20 1021.92 1022.45 1022.89 1023.34 1023.72 1024.33 1024.40 1024.63
1017.67 1017.66 1017.51 1016.71 1015.84 1015.69 1014.64 1013.67 1013.22 1012.24 1011.47 1009.88 1008.47 1008.10 1008.26 1008.06 1006.86 1007.24 1007.58 1007.72 1008.00 1008.26 1008.66 1008.89 1009.26 1009.42 1010.11 1010.86 1012.27 1013.50 1013.40 1014.01 1014.68 1014.90 1015.36 1015.96 1016.61 1017.73 1018.79 1019.74 1020.63 1021.36 1021.81 1022.23 1022.70 1023.38 1023.74 1024.34 1024.52
1017.50 1017.40 1017.11 1016.08 1015.42 1015.76 1014.65 1013.16 1012.38 1011.00 1009.04 1008.88 1007.89 1007.24 1008.35 1008.06 1006.83 1007.31 1007.52 1007.73 1007.68 1007.35 1007.67 1008.13 1008.60 1009.30 1009.58 1009.81 1010.33 1011.02 1011.85 1013.10 1013.86 1014.58 1015.19 1015.55 1015.99 1016.34 1017.21 1018.46 1019.61 1020.59 1021.42 1022.07 1022.51 1022.79 1023.41 1023.90 1024.08
1017.24 1017.36 1016.27 1016.26 1015.93 1015.32 1014.57 1012.65 1011.55 1009.67 1008.74 1008.39 1007.28 1007.79 1008.04 1008.35 1007.69 1006.77 1007.63 1007.68 1007.46 1007.41 1007.32 1007.81 1008.05 1008.42 1009.28 1009.90 1010.61 1011.28 1011.90 1012.68 1013.24 1013.72 1014.33 1014.94 1015.75 1016.52 1016.69 1017.09 1018.05 1019.32 1020.11 1020.74 1021.36 1021.89 1022.21 1022.73 1023.47
1016.70 1016.08 1016.34 1016.26 1016.95 1016.51 1015.28 1012.48 1011.22 1009.38 1008.66 1007.72 1007.92 1007.83 1007.99 1008.40 1008.14 1008.31 1008.11 1007.78 1007.51 1007.16 1007.34 1007.46 1007.73 1008.27 1008.62 1009.42 1009.94 1010.21 1010.33 1010.75 1010.75 1011.62 1013.32 1014.35 1014.90 1015.46 1016.22 1017.01 1017.52 1018.12 1019.14 1019.95 1020.40 1021.03 1021.40 1021.67 1022.38
1015.82 1015.57 1016.13 1016.62 1016.83 1016.66 1015.93 1014.74 1010.40 1009.49 1008.56 1007.72 1007.59 1007.71 1008.05 1008.36 1008.51 1008.48 1008.56 1008.09 1007.90 1007.47 1007.08 1007.74 1008.18 1008.74 1009.06 1009.57 1010.13 1010.61 1010.50 1010.67 1011.13 1011.71 1012.42 1013.20 1014.41 1015.33 1016.01 1016.59 1017.20 1017.78 1018.37 1018.98 1019.66 1020.50 1020.91 1021.10 1021.38
1015.61 1016.11 1016.68 1017.17 1017.55 1016.39 1014.59 1013.91 1010.92 1009.29 1008.00 1007.74 1007.63 1007.56 1007.90 1008.51 1008.87 1009.10 1008.95 1008.79 1009.15 1009.26 1008.78 1008.29 1008.51 1009.24 1009.73 1010.18 1010.42 1010.64 1010.99 1011.03 1011.05 1011.12 1011.68 1012.64 1013.40 1013.82 1014.93 1015.52 1016.00 1016.66 1017.34 1017.93 1018.54 1019.48 1020.23 1020.57 1020.91
1015.65 1016.69 1017.54 1017.46 1017.64 1015.74 1014.21 1013.52 1010.05 1008.42 1007.82 1008.09 1008.47 1008.48 1008.94 1010.18 1010.53 1010.62 1010.16 1010.06 1010.28 1010.09 1009.21 1009.57 1009.63 1010.00 1010.76 1010.92 1010.44 1010.42 1010.59 1011.11 1011.33 1011.25 1011.44 1011.98 1012.66 1013.38 1013.66 1014.27 1015.14 1015.80 1016.60 1017.47 1018.27 1018.85 1019.26 1019.77 1020.12
1015.22 1015.92 1016.74 1016.96 1017.10 1015.48 1014.42 1011.10 1009.01 1008.31 1007.98 1009.21 1009.24 1009.38 1010.33 1011.01 1011.95 1011.88 1011.55 1011.45 1011.01 1010.54 1010.78 1010.42 1010.60 1011.01 1010.69 1011.11 1011.19 1011.70 1012.04 1011.55 1011.68 1012.35 1012.23 1011.96 1011.98 1011.90 1012.54 1013.34 1014.23 1014.67 1015.44 1016.14 1016.87 1017.85 1018.58 1019.01 1019.34
1015.17 1014.89 1014.38 1015.29 1016.08 1015.95 1013.49 1010.70 1008.86 1008.30 1009.13 1009.50 1010.88 1011.87 1012.46 1013.02 1013.19 1013.51 1013.53 1013.15 1012.69 1012.51 1012.56 1012.09 1011.64 1011.62 1011.54 1011.42 1011.13 1010.87 1011.10 1011.50 1011.49 1011.32 1011.59 1012.22 1012.14 1011.87 1012.25 1012.59 1013.09 1013.83 1014.66 1015.40 1016.01 1016.36 1016.96 1017.80 1018.57
1014.29 1014.30 1014.78 1015.42 1015.53 1014.91 1013.33 1011.87 1009.71 1010.00 1011.20 1012.14 1013.02 1013.99 1014.57 1014.57 1014.51 1014.67 1014.54 1014.13 1014.24 1013.95 1013.16 1012.93 1012.51 1012.71 1012.24 1011.71 1011.51 1010.97 1010.77 1010.81 1011.05 1011.08 1011.01 1010.99 1011.38 1011.85 1012.14 1012.26 1012.61 1013.32 1013.66 1014.29 1015.17 1015.62 1016.26 1016.78 1017.11
1014.68 1014.57 1014.70 1014.44 1013.92 1013.13 1012.57 1011.07 1009.13 1011.39 1013.54 1014.75 1015.40 1015.69 1016.01 1015.88 1015.28 1014.99 1015.17 1014.96 1014.79 1014.77 1014.37 1013.40 1013.09 1012.75 1012.50 1011.88 1011.70 1011.39 1010.70 1010.55 1010.49 1010.68 1010.39 1010.28 1010.55 1011.00 1011.15 1011.23 1011.77 1012.13 1012.72 1013.39 1014.08 1014.96 1015.43 1015.93 1016.46
1013.67 1013.48 1013.94 1014.09 1013.22 1012.29 1011.50 1009.74 1009.93 1011.79 1013.69 1014.94 1016.11 1016.51 1016.67 1016.74 1016.68 1016.04 1015.66 1015.36 1015.00 1014.94 1014.42 1014.16 1013.93 1013.48 1013.30 1012.60 1011.85 1011.10 1010.86 1010.65 1010.42 1010.30 1010.22 1010.06 1009.83 1010.05 1010.34 1010.66 1011.16 1011.35 1011.63 1012.05 1012.22 1013.08 1014.04 1014.86 1015.56
Wind_Speed
3 3 2 5 4 4 3 5 2 3 2 2 6 4 5 2 5 3 1 10 6 13 11 11 13 14 13 14 13 13 13 13 11 12 12 9 8 7 8 8 9 10 11 11 9 7 8 8 9
2 1 5 3 4 2 5 4 4 4 1 3 3 2 1 6 3 4 2 12 8 13 11 10 12 13 13 14 13 12 14 12 13 11 12 10 9 7 8 7 6 6 7 6 7 7 8 7 8
2 4 4 4 3 4 4 5 3 2 2 3 1 2 2 4 2 3 1 14 9 12 11 9 12 15 14 15 14 14 13 12 12 11 10 7 8 9 6 6 7 7 7 8 7 7 7 8 8
3 4 4 3 4 7 6 2 3 5 1 2 1 5 4 4 3 1 4 10 11 10 8 10 11 12 13 12 12 14 13 12 8 8 7 9 8 7 7 7 8 9 8 8 7 8 9 8 9
4 3 3 2 5 6 5 5 3 2 2 2 2 3 5 1 3 2 7 9 12 10 8 8 11 12 14 13 11 11 10 12 11 11 10 10 10 10 9 8 9 9 8 8 9 9 9 9 10
4 3 3 3 5 5 6 5 2 3 2 2 2 1 6 1 2 4 7 10 8 10 7 7 9 9 13 15 13 12 11 12 14 13 12 12 12 11 10 10 10 10 9 10 9 10 10 10 11
6 4 4 3 5 6 4 3 3 3 2 5 3 2 5 4 3 4 6 7 9 9 8 7 7 8 12 12 13 16 14 12 14 14 13 13 12 12 12 12 12 12 12 11 11 10 10 11 11
5 4 2 4 3 7 2 2 2 5 5 2 4 5 6 2 3 4 3 5 6 7 9 10 9 7 7 9 10 12 12 12 14 14 12 10 10 10 10 9 11 12 12 11 10 10 11 11 10
3 4 3 5 6 5 2 2 3 1 2 4 7 5 3 3 4 4 3 3 5 7 9 9 9 8 8 8 7 8 11 12 12 11 11 9 5 7 6 7 11 12 11 10 10 10 11 11 11
4 4 9 6 6 5 3 5 2 1 5 5 5 7 4 4 5 8 9 11 11 12 12 9 10 10 8 5 7 7 7 7 6 7 8 7 7 6 6 6 9 11 11 11 10 10 10 7 4
5 7 6 6 8 4 4 3 4 3 9 10 9 9 6 6 8 11 12 12 17 13 8 12 10 9 10 8 6 4 4 5 5 9 8 7 5 5 4 4 4 4 7 4 5 5 3 5 4
3 8 6 4 5 2 4 1 4 8 20 6 12 7 4 8 12 14 15 15 14 11 13 12 12 11 10 6 7 7 7 6 6 7 9 7 5 6 6 5 5 4 3 5 4 3 4 5 5
4 5 5 7 5 8 4 13 7 14 20 7 7 9 12 10 13 11 14 11 10 12 13 14 14 14 11 11 8 8 8 8 8 8 9 8 8 7 7 6 5 5 4 4 4 4 4 4 4
3 4 7 6 7 6 7 16 6 13 9 12 8 13 11 12 15 8 10 17 15 14 17 15 17 16 14 14 13 10 8 9 9 8 9 10 8 8 7 7 6 6 6 5 4 4 4 3 4
2 8 8 6 5 9 7 10 13 20 3 13 13 11 10 14 8 18 17 16 17 18 14 17 17 16 17 18 14 11 10 9 9 9 10 11 10 11 10 8 7 6 6 7 5 5 4 4 4
1 0 5 2 5 2 7 11 20 5 5 12 13 10 10 12 13 14 14 14 11 12 17 15 15 18 19 17 14 11 10 10 10 9 9 13 12 12 10 8 8 8 7 6 6 5 4 3 3
2 5 8 11 11 6 8 9 11 2 5 12 14 17 13 18 20 12 12 13 13 16 15 15 17 19 21 17 13 13 13 11 10 10 10 13 13 12 10 8 8 9 7 7 6 3 3 4 3
9 5 6 6 4 4 5 14 13 17 12 22 21 22 22 16 23 19 8 10 11 13 15 15 15 18 17 11 10 8 9 10 10 11 12 15 12 14 11 8 9 9 7 7 6 5 3 2 4
1 5 7 7 9 4 17 18 14 16 16 24 25 21 17 14 19 13 7 8 8 8 11 14 15 18 15 14 13 10 13 12 11 11 15 16 15 15 14 9 10 9 9 10 10 5 6 3 4
9 12 13 10 14 4 10 19 20 23 25 21 24 23 11 10 18 9 6 6 8 8 11 12 14 14 15 13 12 7 11 10 9 9 11 14 15 16 15 13 11 12 8 10 10 7 5 3 6
6 6 10 11 6 6 7 9 5 8 8 8 20 10 11 14 15 18 9 6 8 9 9 11 13 14 14 13 9 3 5 3 8 9 10 12 14 14 15 16 14 14 11 11 12 10 9 6 4
9 10 11 5 3 5 4 12 3 9 11 7 9 7 7 9 9 9 9 8 7 9 5 7 9 12 13 14 12 17 12 10 9 12 9 10 14 15 15 15 14 14 10 11 11 10 8 6 6
10 2 3 3 4 2 3 5 6 2 8 6 8 5 2 7 7 7 10 11 10 8 4 3 3 5 8 11 11 10 12 8 3 7 12 12 11 12 13 14 13 13 10 11 12 11 10 6 5
3 2 4 4 1 5 11 9 3 5 6 2 6 9 9 11 10 10 7 8 12 9 8 6 3 2 3 7 9 12 12 6 6 7 11 10 9 10 13 14 14 14 13 13 12 12 12 10 5
4 5 5 6 2 8 3 4 5 7 5 1 6 7 7 7 10 13 19 17 13 10 12 8 6 3 3 5 8 10 11 8 9 10 9 11 10 10 14 16 15 12 12 12 11 11 12 11 10
7 9 7 7 4 7 3 11 6 9 6 6 2 2 9 14 14 17 19 17 20 21 16 12 10 8 4 3 4 3 7 5 5 6 6 8 9 12 14 16 14 15 15 14 13 10 10 11 10
3 6 3 2 0 4 7 14 14 9 4 3 10 14 19 18 20 19 18 18 18 17 17 16 13 9 7 5 5 4 5 6 6 6 7 7 8 9 12 15 16 16 15 16 15 12 14 13 11
5 1 1 1 4 8 10 9 15 8 10 16 17 15 13 11 13 13 14 15 16 15 14 15 14 13 13 11 7 6 5 6 7 5 10 9 9 9 11 14 16 15 16 16 16 13 12 14 11
2 3 5 2 7 12 12 9 7 9 12 9 6 8 10 12 13 14 13 11 10 11 13 14 14 14 15 14 12 10 8 7 7 8 10 11 10 11 13 15 16 17 17 17 16 15 14 17 14
9 17 17 14 12 10 15 14 11 13 11 10 8 8 9 10 11 11 11 12 13 14 13 13 14 12 11 12 12 12 11 9 7 10 11 11 12 12 13 13 14 15 17 17 20 19 17 18 17
Wind_Direction
31 40 59 40 47 56 273 263 289 264 253 146 123 150 204 228 174 226 112 192 177 159 173 182 174 176 176 169 170 170 174 169 164 151 138 153 124 117 104 105 98 93 96 87 78 84 81 73 62
38 68 46 75 85 33 271 266 247 238 16 138 157 150 248 260 240 268 185 186 188 164 170 169 176 178 177 169 174 180 186 179 164 153 135 142 143 162 164 159 127 119 98 101 93 92 87 83 80
93 36 80 88 106 197 234 218 254 285 178 180 236 250 235 236 252 254 234 163 170 170 168 172 174 181 178 185 181 185 176 175 146 139 136 146 164 154 155 150 150 140 127 124 113 106 96 89 78
67 17 47 87 231 253 228 248 235 300 162 240 203 268 282 236 192 205 153 161 162 170 168 176 175 169 172 169 175 176 176 164 165 172 163 163 180 165 153 149 129 130 128 120 109 98 90 81 76
38 59 56 14 257 261 251 258 209 246 288 205 194 273 262 248 22 107 157 165 170 169 170 176 179 171 163 164 173 161 165 154 179 183 185 173 169 166 157 151 140 133 126 120 115 105 94 88 78
51 91 55 264 253 258 269 236 191 209 225 208 192 249 251 190 190 190 169 171 170 173 178 183 184 192 186 190 184 178 184 178 191 188 185 175 172 168 162 157 152 144 137 127 119 114 105 93 83
116 96 209 243 267 296 243 138 193 204 229 242 172 215 260 282 196 162 169 168 171 174 177 190 197 198 199 194 200 198 191 187 189 191 179 175 173 171 169 164 160 151 144 139 132 122 109 95 90
107 98 156 234 231 271 272 213 193 176 253 81 186 234 256 209 125 121 138 169 187 192 192 192 193 193 188 199 206 187 194 178 179 171 171 164 165 169 165 159 161 153 144 138 131 121 111 103 97
131 72 210 244 169 246 219 262 191 180 247 216 205 217 241 94 119 122 140 209 212 220 212 198 194 191 181 182 188 184 175 164 164 160 155 141 145 148 144 159 161 153 145 138 132 121 108 95 86
110 144 219 213 197 222 247 200 241 255 253 236 271 259 173 147 178 187 193 206 211 214 212 207 196 191 182 178 184 172 165 166 160 152 147 146 150 155 153 170 151 146 144 138 127 114 101 92 84
177 203 212 244 227 221 237 246 208 207 269 221 209 240 197 188 207 214 217 214 213 210 204 202 201 195 185 184 177 177 174 162 162 161 156 154 155 162 154 133 110 109 97 100 104 111 101 101 105
210 244 204 247 216 210 240 268 209 205 253 231 214 222 182 211 216 214 221 221 216 199 207 195 195 197 199 185 187 181 177 174 172 174 165 161 165 171 164 154 145 140 138 139 142 135 123 108 95
224 241 220 228 251 257 296 258 223 244 253 265 251 238 237 231 236 223 223 229 211 214 212 206 192 196 193 194 191 187 190 183 178 175 176 169 174 175 169 164 160 160 156 161 154 147 136 121 104
223 268 273 277 242 247 199 272 133 252 266 278 240 249 238 231 236 238 213 230 216 216 214 199 201 198 189 197 192 194 190 185 182 182 184 179 175 173 178 172 173 171 172 165 164 154 144 130 127
318 307 311 210 242 225 158 284 231 250 245 276 281 271 256 243 218 224 231 225 216 217 210 205 200 198 198 198 194 193 191 184 189 189 185 184 181 181 178 175 177 178 171 158 152 148 152 159 145
249 16 306 259 156 243 169 257 273 256 228 265 279 282 288 270 236 240 238 232 219 213 210 202 197 197 201 203 196 194 190 189 191 188 187 187 186 183 180 178 182 172 166 168 166 160 151 136 115
306 233 222 310 198 141 184 258 266 282 286 278 283 283 270 275 273 250 227 226 214 211 208 206 201 200 199 200 196 196 190 194 191 186 186 187 188 182 180 184 177 169 168 172 164 158 161 166 148
222 223 245 248 289 191 210 251 277 289 291 280 275 271 270 270 270 277 249 228 226 214 211 206 197 201 196 195 195 194 191 198 190 192 192 185 185 181 182 179 171 170 170 170 172 163 159 147 141
193 225 243 260 258 305 269 269 269 273 268 272 271 273 274 268 269 271 252 232 229 221 207 205 196 198 182 183 180 197 205 201 201 200 194 187 183 181 182 179 171 174 179 180 175 157 163 160 172
242 262 265 274 259 198 268 283 274 259 262 259 269 277 291 286 293 289 279 260 239 233 217 207 208 199 197 193 195 198 194 211 210 203 202 196 188 181 177 175 179 179 174 179 180 171 149 146 188
225 220 246 254 316 253 318 276 241 280 257 268 261 274 279 272 288 307 328 277 261 257 223 216 207 196 199 200 182 111 108 123 185 197 193 194 190 188 186 181 176 179 183 186 185 184 177 160 188
258 231 253 258 360 251 18 292 188 253 278 263 290 272 282 296 316 326 313 306 290 289 278 226 201 199 191 187 189 197 203 196 200 196 196 196 193 189 190 186 182 180 182 186 187 186 188 151 166
235 190 218 193 195 3 303 279 251 220 263 276 284 302 17 262 226 348 348 341 311 312 325 297 236 208 190 189 196 202 213 214 159 184 179 184 186 193 189 189 184 185 185 189 185 183 195 194 169
116 60 37 58 49 281 209 192 288 192 207 308 312 349 11 9 12 9 331 337 351 355 357 24 67 99 166 190 201 202 218 208 181 174 182 187 188 180 191 189 187 188 189 187 184 186 195 196 198
116 70 315 330 7 238 348 268 244 248 249 286 340 321 1 14 10 351 2 4 5 7 25 15 30 15 312 256 221 213 219 218 215 190 192 181 182 194 197 186 187 189 190 187 183 187 193 193 196
175 170 169 232 248 283 349 255 256 230 266 43 105 303 19 19 10 17 16 13 14 14 12 14 16 350 349 282 266 303 285 246 230 229 218 204 203 202 191 194 197 193 188 184 182 187 196 196 200
182 188 197 315 74 288 252 283 288 253 150 30 51 25 27 27 20 18 18 17 18 21 16 13 8 349 336 303 273 245 237 241 233 208 201 214 215 201 193 193 192 190 189 190 187 192 190 189 194
199 174 89 328 178 232 268 275 245 319 33 33 29 21 11 21 26 21 18 17 13 11 17 18 23 12 356 341 302 271 248 237 242 208 209 204 205 201 196 193 196 197 194 190 191 195 195 192 191
143 251 242 274 202 242 254 246 253 72 78 74 41 20 18 13 15 13 12 15 17 12 8 11 10 11 3 2 347 311 281 249 235 227 221 215 202 200 198 197 200 199 195 192 192 200 193 198 193
224 246 231 235 238 235 236 254 4 99 88 79 69 41 36 25 9 11 7 3 5 2 5 4 357 359 356 352 347 350 331 297 259 245 238 219 213 206 204 201 205 203 201 196 196 195 193 198 196